User: anonymous   Login
Location: Curupao
(10.4996°N, 66.6442°W)
Time: 06:43:58
(UTC+00:00)
Language:

H-2A R/B - Orbit

View from above orbital plane
View from above orbital plane
View from above satellite
View from above satellite

Ground track
Ground track

The orbit data is extracted from the following two-line orbital elements,

1 27601U 02056E   24205.55213670  .00000825  00000-0  30800-3 0  9990
2 27601  98.2324 180.8231 0072116 132.2899   2.1998 14.32874189128995
Epoch (UTC): 23 July 2024 13:15:04
Eccentricity: 0.0072116
inclination: 98.2324°
perigee height: 730 km
apogee height: 834 km
right ascension of ascending node: 180.8231°
argument of perigee: 132.2899°
revolutions per day: 14.32874189
mean anomaly at epoch: 2.1998°
orbit number at epoch: 12899

The dashed part of the orbit path shows where the satellite is in the earth's shadow,  

DLR